BADR-4

Last updated on Nov. 15, 2019, 4:20 a.m. UTC

1 29526U 06051A   19317.91479458  .00000159  00000-0  00000+0 0  9998
2 29526   0.0635 320.7954 0005333 308.9685 138.3405  1.00274410 47759
UTC
Height (km)
Latitude
Longitude
Inclination
Orbital Period
UTC large
Height (km)
Speed (km/s)
/
Latitude / Longitude
Inclination (degrees)
Orbital Period (minutes)
Azimuth
Elevation
Range (km)
Doppler Factor
iOS Compass Heading
iOS Angle

Next 30 passes for location: Hong Kong

Rise time Rise Azimuth (degrees) Set time Set Azimuth (degrees) Duration Max altitude (degrees)

No matching passes for this satellites